Weather Roundup
Issued by NWS Corpus Christi, TX

Home | Current Version | Previous Version | Text Only | Print | Product List | Glossary On
Versions: 1 2 3 4 5 6 7 8 9 10 11 12 13 14 15 16 17 18 19 20 21 22 23 24 25 26 27 28 29 30 31 32 33 34 35 36 37 38 39 40 41 42 43 44 45 46 47 48 49 50
000
ASUS44 KCRP 271910
HRRCRP

SOUTH TEXAS REGIONAL WEATHER ROUNDUP
NATIONAL WEATHER SERVICE CORPUS CHRISTI TX
200 PM CDT WED AUG 27 2014


TXZ229>244-272000-
...CORPUS CHRISTI AREA OBSERVATIONS...

CITY           SKY/WX    TMP DP  RH WIND       PRES   REMARKS
CORPUS CHRISTI PTSUNNY   91  71  51 E13       29.94F HX  97
NAS CORPUS CHR PTSUNNY   93  75  55 NE12      29.93F HX 104
ROCKPORT       MOSUNNY   91  75  59 E15       29.93F HX 101
KINGSVILLE NAS PTSUNNY   98  71  41 N10G21    29.93F HX 106
ALICE          MOSUNNY   97  67  37 NE13G20   29.94F HX 101
FALFURRIAS     SUNNY     99  62  29 N14       29.93F HX 100
$$

...VICTORIA AREA OBSERVATIONS...

CITY           SKY/WX    TMP DP  RH WIND       PRES   REMARKS
VICTORIA       PTSUNNY   96  68  39 NE13G21   29.95F HX 101
BEEVILLE       FAIR      97  63  32 NE9G21    29.95F HX  98
PLEASANTON     MOSUNNY   95  62  33 NE9G17    29.98F HX  96
SAN ANTONIO    PTSUNNY   91  66  43 NE8       30.01F HX  93
$$

...LAREDO AREA OBSERVATIONS...

CITY           SKY/WX    TMP DP  RH WIND       PRES   REMARKS
LAREDO         MOSUNNY   97  67  37 E7        29.99F HX 101
COTULLA        MOSUNNY   96  64  34 E12       29.98F HX  98
DEL RIO        SUNNY     95  67  39 VRB3      29.99F HX  99
MCALLEN        MOSUNNY   99  66  33 N10G16    29.93F HX 103
HEBBRONVILLE   MOSUNNY   94  61  33 NE9       29.98F HX  94
$$

...OTHER TEXAS OBSERVATIONS...

CITY           SKY/WX    TMP DP  RH WIND       PRES   REMARKS
BROWNSVILLE    MOSUNNY   96  74  48 NE16G22   29.92F HX 107
HOUSTON        PTSUNNY   91  68  46 NE14      29.98F HX  95
COL. STATION   SUNNY     93  60  33 NE13      30.00F HX  93
AUSTIN         MOSUNNY   94  64  37 NE9       30.00F HX  95
WACO           SUNNY     95  65  37 E14G20    30.02F HX  97
FORT WORTH     MOSUNNY   91  67  44 VRB5      30.03F HX  94
WICHITA FALLS  MOSUNNY   97  63  32 SE12G18   30.02F HX  98
LUBBOCK        MOSUNNY   92  59  33 VRB3      30.12F HX  91
EL PASO        MOSUNNY   83  61  47 CALM      30.18F
$$

...MARINE OBSERVATIONS...

STATION/POSITION TIME  SKY/WX   TEMP    WIND        PRES    VSBY  WAVE   SWELL
                                AIR SEA DIR/SP/G                  HT/PER HT/PER
                 (UTC)          (F)     (DEG/KT/KT) (MB)    (MI)  (FT/S) (FT/S)
PORT ARANSAS     1900            82 84   40/ 15/ 17 1014.4F
BUOY 90 E PORT A 1900            84 87   60/ 16/ 19 1012.9F         6/ 7   3/ 8
BUOY 45 SE BAFFI 1900            84 85   10/ 17/ 21 1012.3F         5/ 8   3/ 8
BUOY 200 E PT IS 1900            85 87  210/  8/ 10 1012.2F         3/ 8   3/ 8
BUOY 15 E GALVES 1900            82 87   80/ 14/ 17 1014.8R         4/ 6
$$


USA.gov is the U.S. government's official web portal to all federal, state and local government web resources and services.